EW3001 Weather Reports


time (UTC)temp
C
wind
direction
speed
KPH
gust
KPH
rain 1hr
cm
rain 24hr
cm
rain mn
cm
humidity
%
barometer
mb
20260507114558 3 360 8.0 17.7 0.00 0.08 0.00 81 1013.7
20260507113051 3 360 9.7 16.1 0.00 0.08 0.00 81 1013.9
20260507111553 3 360 11.3 14.5 0.00 0.08 0.00 81 1014.2
20260507110055 3 360 9.7 14.5 0.00 0.08 0.00 81 1014.4
20260507104557 3 360 11.3 16.1 0.00 0.10 0.00 80 1014.5
20260507103055 3 360 8.0 16.1 0.00 0.10 0.00 80 1014.9
20260507101553 3 360 8.0 14.5 0.00 0.10 0.00 80 1014.9
20260507100059 3 360 11.3 17.7 0.00 0.10 0.00 80 1015.1
20260507094554 3 360 12.9 19.3 0.00 0.10 0.00 81 1015.2
20260507093054 3 360 12.9 17.7 0.00 0.10 0.00 81 1015.2
20260507091554 3 360 9.7 19.3 0.00 0.10 0.00 81 1015.4
20260507090100 4 360 11.3 19.3 0.00 0.10 0.00 81 1015.5
20260507084553 4 360 12.9 19.3 0.00 0.10 0.00 81 1015.6
20260507083050 4 360 12.9 20.9 0.00 0.10 0.00 81 1015.9
20260507081554 4 360 11.3 19.3 0.00 0.10 0.00 81 1016.3
20260507074545 5 360 12.9 17.7 0.00 0.10 0.00 81 1016.7
20260507073050 5 360 14.5 20.9 0.00 0.10 0.00 81 1016.7
20260507071549 5 360 14.5 20.9 0.00 0.10 0.00 81 1016.9
20260507070056 5 360 12.9 17.7 0.00 0.10 0.00 81 1017.1
20260507064629 5 360 11.3 19.3 0.00 0.15 0.00 81 1017.3
20260507063053 6 360 14.5 19.3 0.00 0.15 0.00 81 1017.5
20260507061550 6 360 12.9 19.3 0.00 0.15 0.00 81 1017.6
20260507060143 6 360 14.5 20.9 0.00 0.15 0.00 81 1017.5
20260507054554 6 360 12.9 22.5 0.00 0.20 0.00 81 1017.8
20260507053107 6 360 14.5 20.9 0.00 0.20 0.00 81 1017.8
20260507051605 6 360 12.9 17.7 0.00 0.20 0.00 81 1017.8
20260507050052 6 360 12.9 19.3 0.00 0.20 0.00 81 1017.9
20260507044555 6 360 12.9 17.7 0.00 0.30 0.20 81 1018.0
20260507043049 6 360 12.9 17.7 0.00 0.30 0.20 81 1018.2
20260507041553 6 360 12.9 17.7 0.00 0.30 0.20 81 1018.3
20260507040049 7 360 11.3 16.1 0.00 0.30 0.20 80 1018.2
20260507034549 7 360 11.3 16.1 0.00 0.36 0.20 79 1018.3
20260507033051 7 360 11.3 16.1 0.00 0.36 0.20 78 1018.5
20260507031549 8 360 8.0 12.9 0.00 0.36 0.20 77 1018.4
20260507030050 8 360 8.0 14.5 0.00 0.36 0.20 77 1018.4
20260507024551 9 360 9.7 14.5 0.00 0.38 0.20 76 1018.3
20260507023050 9 360 12.9 17.7 0.00 0.38 0.20 75 1018.3
20260507021551 10 360 12.9 19.3 0.00 0.38 0.20 74 1018.1
20260507020103 10 360 11.3 19.3 0.00 0.38 0.20 75 1018.0
20260507014558 10 360 9.7 19.3 0.00 0.38 0.20 73 1017.9
20260507013050 10 360 6.4 9.7 0.00 0.38 0.20 72 1018.0
20260507011549 10 360 9.7 16.1 0.00 0.38 0.20 70 1017.9
20260507010059 11 360 9.7 14.5 0.00 0.38 0.20 68 1017.9
20260507004553 11 360 11.3 19.3 0.00 0.38 0.20 67 1017.8
20260507003052 11 360 14.5 22.5 0.00 0.38 0.20 65 1017.9
20260507001556 11 360 9.7 19.3 0.00 0.38 0.20 61 1017.8
20260507000052 11 0 0.0 14.5 0.00 0.38 0.20 61 1018.1
20260506234555 11 360 11.3 17.7 0.00 0.38 0.20 61 1018.1
20260506233054 10 360 16.1 24.1 0.00 0.38 0.20 65 1018.1
20260506231606 10 360 17.7 27.4 0.00 0.38 0.20 66 1018.1
20260506230106 11 360 12.9 20.9 0.00 0.38 0.20 65 1018.3
20260506224552 11 360 11.3 20.9 0.00 0.38 0.20 63 1018.1
20260506223049 11 360 9.7 19.3 0.00 0.38 0.20 63 1018.2
20260506221608 11 360 12.9 24.1 0.00 0.38 0.20 64 1018.3
20260506220108 12 360 11.3 24.1 0.00 0.38 0.20 66 1018.3
20260506214550 11 360 14.5 24.1 0.00 0.38 0.20 63 1018.4
20260506213104 12 360 12.9 19.3 0.00 0.38 0.20 59 1018.6
20260506211547 11 360 14.5 20.9 0.00 0.38 0.20 60 1018.7
20260506210057 11 0 6.4 19.3 0.00 0.38 0.20 59 1018.7
20260506204556 12 360 14.5 17.7 0.03 0.41 0.20 60 1018.9
20260506203052 12 360 1.6 17.7 0.03 0.41 0.20 61 1019.0
20260506201553 11 360 3.2 19.3 0.03 0.41 0.20 62 1019.1
20260506200048 11 0 0.0 16.1 0.03 0.41 0.20 63 1019.3
20260506194556 11 360 11.3 19.3 0.00 0.38 0.18 64 1019.4
20260506193048 11 360 4.8 16.1 0.00 0.38 0.18 63 1019.7
20260506191551 11 360 4.8 14.5 0.00 0.38 0.18 64 1019.6
20260506190052 10 0 0.0 3.2 0.00 0.38 0.18 64 1019.7
20260506184605 10 0 0.0 9.7 0.00 0.38 0.18 66 1019.9
20260506183052 10 0 0.0 6.4 0.00 0.38 0.18 71 1020.2
20260506181551 9 0 0.0 0.0 0.00 0.38 0.18 75 1020.5
20260506180058 8 0 0.0 0.0 0.00 0.38 0.18 75 1020.8
20260506174554 8 0 0.0 0.0 0.00 0.38 0.18 76 1020.8
20260506173050 8 0 0.0 0.0 0.00 0.38 0.18 77 1020.8
20260506171601 8 0 0.0 0.0 0.00 0.38 0.18 77 1020.8
20260506170053 8 0 0.0 0.0 0.00 0.38 0.18 79 1020.6
20260506164550 7 0 0.0 0.0 0.00 0.38 0.18 79 1020.5
20260506163049 7 0 0.0 0.0 0.00 0.38 0.18 80 1020.3
20260506161549 7 0 0.0 1.6 0.00 0.38 0.18 81 1020.2
20260506160100 7 0 0.0 1.6 0.00 0.38 0.18 82 1020.3
20260506154551 7 0 0.0 0.0 0.00 0.41 0.18 82 1020.2
20260506153046 7 0 0.0 0.0 0.00 0.41 0.18 82 1020.2
20260506151550 6 0 0.0 0.0 0.00 0.41 0.18 82 1020.3
20260506150054 6 0 0.0 1.6 0.00 0.41 0.18 81 1020.1
20260506144559 6 0 0.0 8.0 0.00 0.41 0.18 79 1020.2
20260506143047 6 0 0.0 14.5 0.00 0.41 0.18 78 1020.1
20260506141547 6 0 0.0 6.4 0.00 0.41 0.18 75 1019.9
20260506140050 6 0 0.0 16.1 0.00 0.41 0.18 75 1019.9
20260506134553 6 360 8.0 14.5 0.00 0.41 0.18 75 1019.9
20260506133053 6 0 11.3 16.1 0.00 0.41 0.18 74 1019.8
20260506131607 6 360 9.7 14.5 0.00 0.41 0.18 74 1019.6
20260506130052 6 0 0.0 0.0 0.00 0.41 0.18 74 1019.4
20260506124553 6 0 0.0 8.0 0.03 0.41 0.18 74 1019.3
20260506123052 6 360 0.0 9.7 0.03 0.41 0.18 73 1019.1
20260506121555 6 0 0.0 0.0 0.05 0.41 0.18 74 1018.8
20260506120055 6 0 0.0 12.9 0.05 0.41 0.18 74 1018.6